Regional Weather Roundup
Issued by NWS

Home | Current Version | Previous Version | Text Only | Print | Product List | Glossary On
Versions: 1 2 3 4 5 6 7 8 9 10 11 12 13 14 15 16 17 18 19 20 21 22 23 24 25 26 27 28 29 30 31 32 33 34 35 36 37 38 39 40 41 42 43 44 45 46 47 48 49 50
000
ASUS44 KBMX 270310
RWRAL

ALABAMA REGIONAL WEATHER ROUNDUP
NATIONAL WEATHER SERVICE BIRMINGHAM AL
900 PM CST WED NOV 26 2014

NOTE: "FAIR" INDICATES FEW OR NO CLOUDS BELOW 12,000 FEET
WITH NO SIGNIFICANT WEATHER AND/OR OBSTRUCTIONS TO VISIBILITY.

THE REMARK "TC" DENOTES TEMPERATURE IN DEGREES CELSIUS.

ALZ001>011-014-016>018-020-270400-
NORTH ALABAMA

CITY           SKY/WX    TMP DP  RH WIND       PRES   REMARKS
MUSCLE SHOALS  CLOUDY    46  32  58 W16       30.14R
HUNTSVILLE     PTCLDY    47  33  58 W14G24    30.08R
DECATUR        CLEAR     46  33  60 W16G26    30.10R
HALEYVILLE     MOCLDY    43  32  65 VRB7      30.16R
GADSDEN        CLOUDY    50  34  53 SW16G22   30.06S
$$

ALZ012-013-022-023-030>036-040>044-270400-
WEST CENTRAL ALABAMA

CITY           SKY/WX    TMP DP  RH WIND       PRES   REMARKS
TUSCALOOSA     MOCLDY    54  31  41 NW12G23   30.15R
$$

ALZ015-024>027-033>036-040>044-270400-
CENTRAL ALABAMA

CITY           SKY/WX    TMP DP  RH WIND       PRES   REMARKS
BIRMINGHAM     CLOUDY    51  32  48 W17       30.13R
MONTGOMERY     CLEAR     51  31  46 S8        30.11F
SHELBY CO ARPT CLOUDY    54  32  43 W13G21    30.11R
MAXWELL AFB    PTCLDY    51  32  48 S6        30.10F
GREENVILLE     FAIR      50  32  50 SW10      30.14R
$$

ALZ019-021-028-029-037-038-045>048-270400-
EAST CENTRAL ALABAMA

CITY           SKY/WX    TMP DP  RH WIND       PRES   REMARKS
ANNISTON       CLOUDY    52  28  39 W9        30.07R
ALEXANDER CITY MOCLDY    53  28  39 S8        30.07F
AUBURN         PTCLDY    43  28  56 S10       30.11F
$$

ALZ051>064-270400-
SOUTHWEST ALABAMA

CITY           SKY/WX    TMP DP  RH WIND       PRES   REMARKS
MOBILE         CLEAR     52  43  71 SW8       30.20R
BROOKLEY FIELD CLEAR     55  44  66 VRB3      30.21S
EVERGREEN      CLEAR     50  36  58 SW7       30.18R
$$

ALZ049-050-065>069-270400-
SOUTHEAST ALABAMA

CITY           SKY/WX    TMP DP  RH WIND       PRES   REMARKS
DOTHAN         CLEAR     48  38  68 SW7       30.20F
OZARK          CLEAR     47  37  68 S6        30.17F
TROY           CLEAR     45  34  65 SW7       30.15F
EUFAULA        FAIR      45  33  63 SW3       30.14S
$$


USA.gov is the U.S. government's official web portal to all federal, state and local government web resources and services.